Starlink 30496

operational
NORAD ID: 57919 Int'l Des: 2023-147 Owner: SPXS Country: US Constellation: starlink
LEOCIRCULAR

About Starlink 30496

Description loading...

Live Position

Loading 3D Globe...

Upcoming Passes

Altitude History

Altitude vs Time

uPlot chart will show altitude changes over time

Two-Line Element Set

1 57919U 23147G 25260.23478306 -.00000562 00000-0 -26532-4 0 9993
2 57919 43.0027 188.7518 0000619 268.4325 91.6447 15.02525999110520
Epoch: Sep 17, 2025 • Age: 38 hours

Current Status

Altitude 559.5 km
Velocity 7.58 km/s
Sub-Earth Point -3.81°S, 79.09°E
Launch Date Sep 24, 2023
Age 1.9 years
Type internet

Technical Details

Classification Payload
Mass 730.00 kg
Dry Mass 700.00 kg
Total Mass 730.00 kg
Length 0.30 m
Diameter 4.10 m
Span 29.00 m
Shape Box + pan
Manufacturer SPXS
Bus Type Starlink V2M
Phase Status In Orbit
Owner/State SPXS/US

Large Constellations

Loading constellations...